User: anonymous   Login
Location: Utrecht
(52.0830°N, 5.1330°E)
Time: 15:37:31
(UTC+01:00)
Language:

Cosmos 1092 Rocket - Orbit

View from above orbital plane
View from above orbital plane
View from above satellite
View from above satellite

Ground track
Ground track

The orbit data is extracted from the following two-line orbital elements,

1 11327U 79030B   16344.86905112  .00000030  00000-0  14527-4 0  9999
2 11327  82.9513  76.4358 0027319 352.3865 136.2556 13.76961951893085
Epoch (UTC): 09 December 2016 20:51:26
Eccentricity: 0.0027319
inclination: 82.9513°
perigee height: 954 km
apogee height: 995 km
right ascension of ascending node: 76.4358°
argument of perigee: 352.3865°
revolutions per day: 13.76961951
mean anomaly at epoch: 136.2556°
orbit number at epoch: 89308

The dashed part of the orbit path shows where the satellite is in the earth's shadow,  

DLR